sat.trackr.live / text

‹ back to catalog

QPS-SAR-10 (WADATSUMI-I)

NORAD 64055 · 2025-104A

PAYLOAD ACTIVE UNKNOWN

§ Identity

Operator
Country
JPN
Launch date
2025-05-17
Launch site
RLLB
Launch vehicle
Mass (kg)
RCS (m²)

External: N2YO · Heavens-Above · Gunter

§ Orbital elements

Epoch: 2026-05-25T04:12:30.106944Z

Period
95.90 min
Inclination
42.0048°
Eccentricity
0.0012735
Mean motion
15.01535944 rev/d
Perigee alt
553.3 km
Apogee alt
571.0 km
Semi-major
6,940.3 km
B*
3.3627e-4
RAAN
45.8792°
Arg perigee
195.2487°
Mean anomaly
164.7957°
Rev number
5,597

§ Raw data

QPS-SAR-10 (WADATSUMI-I)1 64055U 25104A   26145.17534846  .00004248  00000+0  33627-3 0  99992 64055  42.0048  45.8792 0012735 195.2487 164.7957 15.01535944 55971

JSON: /api/v1/satellites/64055 · /tle

For live sub-satellite position, see the globe view (requires WebGL).

§ Visibility from observer

Set your observer location to see the next 7 days of passes ≥ 10°. The values pass through the URL so the page stays shareable.

No JS? Fill the form by hand. The geolocation button needs JavaScript.